Temperature
17 17 17 17 17 17 17 17 17 17 17 17 17 17 17 17 17 17 17 17 17 17 17 16 16 16 16 16 16 16 16 16 16 16 16 16 16 16 16 16 16 16 15
17 17 17 17 17 17 17 17 17 17 17 17 17 17 17 17 16 16 16 17 17 17 17 17 16 16 16 16 16 16 16 16 16 16 16 16 16 16 16 16 16 16 15
17 17 17 17 17 17 17 17 17 17 17 17 17 17 17 17 17 16 16 16 17 17 17 17 16 16 16 16 16 16 16 16 16 16 16 16 16 16 16 16 16 16 15
17 17 17 17 17 17 17 17 17 17 17 17 17 17 17 17 17 16 16 16 16 16 16 17 16 16 16 16 16 16 16 16 16 16 16 16 16 16 16 16 16 16 15
17 17 17 17 17 17 17 17 17 17 17 17 17 17 17 17 17 17 17 17 16 16 16 16 17 16 16 16 16 16 16 16 16 16 16 16 16 16 16 16 16 15 15
17 17 17 17 17 17 17 17 17 17 17 17 18 18 17 17 17 17 17 17 17 16 16 16 16 16 16 16 16 16 16 16 16 16 16 16 16 16 16 16 15 15 15
17 18 17 17 17 17 17 17 17 17 17 17 17 17 18 18 18 17 17 17 17 17 16 16 16 16 16 16 16 16 16 16 16 16 16 16 16 16 16 16 15 15 15
18 17 17 17 17 17 17 17 17 17 17 17 17 18 18 18 18 18 17 17 17 17 17 17 16 16 16 16 16 17 16 16 16 16 16 16 16 16 16 15 15 15 15
18 18 17 17 17 17 17 17 17 17 17 17 17 18 18 19 19 18 18 18 17 17 17 17 17 17 16 16 16 16 17 16 16 16 16 16 16 16 16 16 15 15 15
18 18 18 17 17 17 17 17 17 17 17 17 17 17 17 18 18 19 18 18 17 17 17 17 17 17 17 16 16 17 17 17 16 16 16 16 16 16 16 16 15 15 15
18 17 17 17 17 17 17 17 17 17 17 17 17 17 17 17 17 18 18 18 18 18 18 17 17 17 17 17 17 17 17 17 16 16 16 16 16 16 16 15 15 15 15
18 18 18 18 18 17 17 17 17 17 17 17 17 17 17 17 17 18 18 18 18 18 18 18 17 17 17 17 17 17 17 17 16 16 16 16 16 16 16 15 15 15 15
17 17 17 18 17 17 17 17 17 17 17 17 17 17 17 17 17 17 18 18 18 18 18 18 17 17 17 17 17 17 17 17 16 16 16 16 16 16 15 15 15 15 15
17 17 17 18 18 17 17 17 17 17 17 17 17 17 17 17 17 17 17 17 17 18 18 18 17 17 17 17 17 17 16 16 16 16 16 16 16 16 16 15 15 15 15
17 17 17 17 17 17 17 17 17 17 17 17 17 17 17 17 17 17 17 17 17 17 18 17 17 17 17 17 17 16 16 16 16 16 16 16 16 16 15 15 15 15 15
17 17 17 17 17 17 17 17 17 17 17 17 17 17 16 16 16 16 16 17 17 17 17 17 17 17 16 16 16 16 16 16 16 16 16 16 16 15 15 15 15 15 14
17 17 17 17 17 17 17 16 16 16 16 16 16 16 16 16 16 16 16 16 16 16 16 16 16 16 16 16 16 15 15 15 15 15 15 15 15 15 15 15 14 14 14
17 17 17 16 16 16 16 16 16 16 16 16 16 16 16 16 16 16 16 16 16 16 16 15 16 15 15 15 15 15 15 15 15 15 15 15 15 15 14 14 14 14 14
16 16 16 16 16 16 16 16 16 16 16 15 16 15 15 15 15 15 15 15 15 15 15 15 15 15 15 15 15 14 14 14 14 14 14 14 14 14 14 14 14 13 13
16 16 15 15 15 15 15 15 15 15 15 15 15 15 15 15 15 15 15 15 15 15 15 14 14 14 14 14 14 14 14 14 13 13 13 13 13 13 13 13 13 13 13
15 15 15 15 15 15 15 15 15 14 14 14 14 14 14 14 14 14 14 14 14 14 14 14 14 14 13 13 13 13 13 13 13 13 13 12 12 12 12 12 12 12 12
15 15 15 15 14 14 14 14 14 14 14 14 14 14 14 14 14 14 14 14 14 13 13 13 13 13 13 13 13 13 13 13 12 12 12 12 12 12 12 11 11 11 11
15 14 14 14 14 14 14 14 14 14 13 13 13 13 13 13 13 13 13 13 13 13 13 13 12 12 12 12 12 12 12 12 11 11 11 11 11 11 10 11 10 10 10
14 14 14 13 13 13 13 13 13 13 13 13 13 13 13 13 12 12 12 12 12 12 12 12 12 11 11 11 11 11 11 11 11 11 11 10 10 10 10 9 9 9 9
14 13 13 13 13 13 13 13 13 13 12 12 12 12 12 12 12 12 12 12 11 11 11 11 11 11 11 11 11 11 11 11 11 10 10 10 9 9 9 9 9 9 8
13 13 13 12 12 12 12 12 12 12 12 12 12 11 11 12 12 11 11 11 11 10 10 10 10 10 10 10 10 10 10 10 10 10 9 9 9 9 9 9 8 8 8
Wind_Speed
4 4 3 3 4 5 6 4 3 4 3 4 4 3 2 2 3 4 8 10 9 8 8 8 8 8 8 7 8 8 8 8 8 8 8 8 8 8 8 8 8 7 7
5 4 5 4 4 4 4 4 4 4 3 3 3 3 2 3 3 3 6 10 10 9 8 8 8 8 8 8 8 8 8 8 8 8 8 8 8 8 8 8 8 7 7
6 5 4 5 4 5 5 4 4 4 4 4 4 3 3 3 4 4 4 5 9 11 10 9 9 9 9 9 9 9 9 9 9 9 9 9 9 9 8 8 8 8 8
7 6 5 5 5 5 5 4 4 4 3 3 3 3 3 3 4 5 5 5 6 8 12 12 10 10 10 10 10 10 11 11 11 11 11 10 10 10 10 9 9 9 9
8 8 6 4 6 5 5 5 4 4 4 3 4 4 4 4 4 6 5 6 6 6 7 12 13 12 11 11 11 11 12 12 12 12 12 12 12 12 12 11 11 10 10
9 8 7 7 7 6 5 5 4 4 4 4 5 3 4 4 5 5 6 6 7 8 8 8 11 13 14 13 13 13 13 13 14 14 14 14 13 14 13 13 13 12 12
9 9 8 7 8 7 6 7 6 6 6 4 4 4 5 6 6 5 6 6 7 8 7 8 8 8 11 16 16 14 14 14 15 15 15 15 15 15 15 15 15 14 14
10 10 9 8 8 6 7 7 7 6 6 6 5 4 4 5 6 7 6 7 7 7 8 10 9 9 9 9 13 17 16 16 16 16 16 17 17 17 17 17 16 16 16
11 11 11 10 8 8 8 8 8 9 7 6 6 5 4 4 3 5 7 7 7 6 7 8 10 10 11 10 9 16 18 17 16 16 17 17 18 18 18 17 17 17 17
11 11 12 11 9 9 8 9 9 8 8 7 6 6 6 4 4 3 6 7 8 8 8 8 9 10 11 11 10 9 15 17 17 16 17 17 18 18 19 18 18 17 17
9 11 11 10 10 9 9 9 7 9 8 8 7 6 6 6 7 6 5 4 6 7 7 8 8 8 9 10 10 10 13 15 16 16 16 16 17 17 18 18 18 18 17
7 9 10 10 10 9 9 9 9 10 9 8 7 7 6 6 7 7 7 6 5 5 6 6 7 7 8 9 9 8 11 14 15 15 16 16 16 16 17 17 17 17 17
6 8 8 8 8 9 9 9 9 10 10 9 9 8 8 8 7 7 6 6 6 5 5 6 6 6 7 7 7 8 10 12 13 14 14 15 15 15 15 16 16 16 15
6 6 7 8 9 9 9 9 8 9 9 9 10 9 8 8 7 7 7 7 7 6 5 5 4 5 5 6 5 8 7 10 12 13 13 14 14 14 14 14 14 14 14
5 6 7 7 8 8 9 9 8 9 8 9 9 9 9 8 7 8 7 7 7 7 7 5 4 3 4 5 4 6 6 6 10 11 12 12 12 13 13 13 12 12 12
5 5 6 6 6 7 7 7 7 7 8 7 6 7 8 7 6 7 7 7 7 7 7 4 3 3 3 3 4 5 5 4 6 8 9 9 9 9 10 10 9 9 9
3 3 3 3 4 5 5 5 6 6 7 7 7 7 8 7 6 5 5 6 6 6 7 6 3 2 2 4 2 3 4 4 3 6 6 7 7 8 8 8 8 7 7
1 2 2 2 2 3 4 4 5 5 6 6 6 6 6 5 5 5 4 5 5 5 6 7 4 3 2 3 2 3 2 2 1 5 5 5 5 5 6 6 6 6 6
1 1 1 1 2 2 2 3 3 4 4 5 4 5 5 4 4 3 3 4 4 4 4 5 4 2 2 2 2 1 1 0 1 4 7 6 6 5 5 5 5 5 4
2 2 2 2 2 1 1 1 1 1 2 1 1 2 2 2 3 3 3 3 3 3 3 3 3 2 1 2 2 2 1 0 1 1 4 6 7 7 6 5 5 4 5
3 3 3 3 3 3 2 1 1 1 1 0 0 0 1 1 2 1 1 2 2 2 2 2 2 1 1 1 1 2 1 1 1 1 1 2 4 4 5 6 7 7 6
4 4 4 4 5 4 7 7 3 2 2 2 1 2 2 3 5 5 5 5 4 1 0 0 0 0 1 1 1 1 1 1 1 1 1 2 2 3 4 6 9 9 8
5 5 6 6 6 8 9 8 7 5 4 4 4 3 3 4 4 5 6 8 9 10 7 3 2 2 1 2 1 1 0 1 1 0 0 1 2 3 4 7 9 9 8
6 6 7 7 7 7 8 7 6 6 7 6 5 5 5 5 5 6 6 7 8 8 7 6 5 4 4 3 2 0 1 2 2 2 2 0 1 2 3 5 9 9 8
6 6 7 7 7 7 8 6 5 6 7 8 8 8 6 7 8 7 8 8 8 8 11 13 12 10 10 9 5 2 2 1 2 2 2 1 1 0 1 2 6 8 7
7 7 8 8 8 8 9 8 5 6 7 7 8 9 12 10 10 8 7 7 8 6 5 6 7 6 7 9 8 6 4 2 1 2 3 1 0 1 0 1 2 3 4
Wind_Direction
169 158 153 164 175 165 174 183 171 155 162 162 161 155 142 127 125 138 135 152 164 169 172 172 171 170 171 171 170 166 167 166 167 166 165 166 166 165 164 162 162 162 159
171 172 177 185 185 183 176 184 176 186 194 178 179 161 178 149 143 170 153 159 173 180 184 185 185 184 183 185 184 181 181 180 179 181 181 180 179 179 179 176 178 178 175
182 194 191 194 190 183 179 197 191 201 202 194 188 183 188 191 165 178 182 174 175 184 191 196 198 198 197 199 199 198 197 194 193 195 194 194 194 193 192 192 191 191 190
199 209 207 203 193 201 194 191 207 207 206 207 197 203 188 189 190 196 198 199 196 185 186 193 202 205 206 209 209 209 208 204 203 205 205 206 206 205 203 203 203 203 202
206 216 219 208 209 212 209 216 193 214 208 217 211 205 214 210 204 207 207 211 206 206 192 181 197 207 213 216 216 216 214 212 211 211 212 213 214 213 213 213 214 215 215
212 222 220 210 217 216 215 219 206 218 225 226 236 216 229 223 221 214 221 216 212 213 211 193 196 205 211 218 221 222 219 218 217 217 217 218 218 219 219 220 221 222 223
216 222 230 211 222 219 219 217 212 209 219 217 231 233 234 231 226 218 222 228 218 218 219 212 219 216 203 209 217 222 222 221 220 220 220 221 222 222 223 224 225 227 228
222 221 226 227 221 222 218 222 219 230 225 212 228 238 237 224 225 224 216 220 226 218 219 217 219 224 234 215 208 212 220 223 225 223 222 224 224 224 225 227 228 230 231
224 231 228 230 225 227 219 220 219 224 230 226 227 239 255 250 237 214 220 223 223 226 229 224 221 220 225 230 219 207 213 221 226 229 227 227 227 227 228 229 231 233 234
228 229 230 230 228 229 224 225 221 225 228 231 225 233 254 286 266 244 219 216 219 224 233 235 231 222 224 228 226 224 210 220 227 232 232 231 229 228 229 230 232 234 235
230 231 230 230 226 230 230 232 228 229 228 234 237 233 236 240 245 259 258 236 224 225 226 230 237 237 230 230 228 221 209 220 227 231 233 234 232 230 230 231 232 233 234
230 229 229 228 228 229 228 228 228 228 234 239 245 245 240 241 242 246 253 249 241 234 226 233 237 237 236 234 227 207 210 219 225 229 233 236 236 234 232 232 233 234 234
231 226 229 228 231 231 231 229 228 236 233 234 238 242 244 247 253 258 261 263 264 254 232 233 232 237 237 235 226 206 210 217 226 231 234 236 236 234 234 233 234 235 235
244 238 231 230 233 234 235 231 233 234 232 233 239 244 249 247 246 247 254 260 263 259 241 242 237 238 243 236 227 211 219 216 225 229 232 234 235 234 235 234 233 233 234
250 244 240 236 235 235 238 235 233 235 234 233 237 239 245 248 248 248 248 249 253 261 256 237 243 246 242 233 219 228 233 211 216 224 225 226 228 231 232 231 231 232 233
266 259 248 244 241 241 239 237 236 235 232 234 238 242 243 245 241 240 241 244 246 257 266 262 248 258 265 253 209 225 230 201 207 214 217 219 221 223 225 224 223 224 226
268 265 258 253 248 245 241 236 239 238 235 237 239 241 244 250 246 246 244 247 248 248 255 264 267 262 260 274 267 251 244 238 219 189 197 206 212 214 214 215 217 217 218
305 292 276 258 255 247 243 240 241 242 240 240 241 244 246 238 234 248 249 250 254 261 256 259 267 267 253 256 262 263 257 220 168 134 153 166 180 188 192 195 197 199 206
27 360 337 310 296 281 263 255 246 242 240 243 241 242 246 241 239 237 241 248 250 253 255 256 257 271 264 253 240 235 245 272 161 127 125 117 121 135 146 153 159 160 159
53 39 23 14 355 339 310 273 236 231 229 240 259 251 261 256 245 241 236 244 250 249 239 244 250 259 260 257 249 231 219 234 283 109 99 112 113 118 123 129 133 130 129
61 56 42 31 26 16 1 6 132 131 144 124 333 341 20 49 48 3 263 249 243 242 237 231 231 250 268 281 278 278 246 170 45 4 114 106 115 107 105 105 102 99 103
66 62 56 48 45 41 40 39 46 74 75 75 59 48 50 71 81 86 72 61 48 34 305 288 236 252 306 317 330 284 262 249 246 26 79 73 77 81 79 79 89 97 100
73 69 64 62 59 51 49 52 58 74 70 64 64 64 59 63 78 94 92 85 68 57 48 41 58 37 23 4 337 311 349 325 349 274 174 85 65 67 75 82 90 93 94
77 72 67 67 67 57 47 51 63 81 75 64 61 63 70 70 74 88 92 82 70 58 56 62 70 52 42 23 2 40 137 119 111 58 354 55 64 65 77 84 95 97 92
79 74 70 66 66 58 42 42 59 85 80 69 65 62 70 80 67 77 93 91 82 74 72 75 75 73 65 49 25 61 86 103 89 65 26 16 12 6 96 108 110 113 107
84 80 73 65 63 59 44 36 43 90 87 83 75 68 64 70 64 61 89 95 92 85 84 85 81 76 68 62 48 34 23 34 60 73 53 11 46 351 53 104 102 116 112
Height
1579 1580 1580 1581 1583 1584 1585 1586 1587 1587 1588 1589 1590 1590 1591 1591 1592 1593 1592 1591 1591 1592 1593 1593 1594 1595 1596 1597 1597 1598 1599 1600 1600 1601 1602 1602 1603 1604 1605 1605 1606 1606 1607
1578 1579 1580 1581 1583 1584 1585 1586 1587 1588 1589 1589 1590 1590 1591 1591 1591 1592 1592 1591 1591 1592 1592 1593 1594 1595 1595 1596 1597 1598 1599 1600 1600 1601 1602 1602 1603 1604 1604 1605 1606 1606 1607
1577 1579 1580 1581 1583 1584 1584 1585 1586 1588 1588 1589 1590 1590 1591 1591 1591 1591 1592 1592 1592 1591 1592 1592 1593 1594 1595 1596 1597 1598 1598 1599 1600 1600 1601 1602 1603 1603 1604 1605 1605 1606 1606
1576 1577 1580 1581 1582 1583 1584 1585 1586 1587 1588 1589 1589 1589 1590 1590 1590 1590 1591 1591 1592 1592 1591 1592 1592 1593 1594 1595 1595 1596 1597 1598 1599 1599 1600 1601 1602 1602 1603 1604 1605 1605 1606
1574 1576 1578 1580 1580 1582 1583 1584 1585 1586 1587 1588 1588 1588 1589 1589 1589 1590 1590 1591 1591 1591 1592 1591 1591 1592 1592 1593 1594 1595 1596 1597 1597 1598 1599 1599 1600 1601 1602 1602 1603 1604 1604
1573 1575 1576 1578 1579 1581 1582 1583 1583 1584 1585 1586 1587 1588 1588 1588 1588 1588 1589 1589 1590 1590 1591 1591 1591 1591 1591 1592 1592 1593 1594 1595 1595 1596 1597 1598 1598 1599 1600 1601 1601 1602 1603
1571 1572 1575 1576 1577 1579 1580 1581 1582 1583 1584 1585 1586 1586 1586 1586 1586 1586 1587 1588 1588 1589 1589 1589 1590 1590 1590 1590 1590 1591 1592 1592 1593 1594 1595 1595 1596 1597 1598 1598 1599 1600 1600
1568 1571 1572 1574 1575 1576 1577 1579 1579 1581 1582 1583 1584 1584 1584 1585 1584 1584 1584 1585 1586 1586 1587 1587 1587 1587 1588 1589 1588 1589 1589 1590 1591 1591 1592 1593 1593 1594 1595 1596 1596 1597 1598
1566 1567 1569 1571 1572 1574 1575 1576 1577 1578 1579 1580 1581 1582 1582 1581 1581 1582 1582 1583 1583 1584 1584 1585 1585 1585 1585 1586 1586 1586 1586 1587 1588 1588 1589 1590 1590 1591 1592 1593 1593 1594 1594
1563 1564 1566 1567 1569 1571 1572 1573 1574 1575 1576 1577 1578 1578 1580 1580 1580 1579 1580 1580 1580 1580 1581 1582 1583 1583 1582 1583 1583 1583 1583 1584 1585 1585 1586 1586 1587 1588 1588 1589 1590 1590 1591
1560 1561 1563 1564 1565 1567 1568 1570 1571 1572 1573 1574 1575 1576 1576 1577 1578 1578 1577 1578 1578 1578 1578 1579 1579 1580 1580 1580 1580 1580 1580 1581 1581 1582 1582 1583 1583 1584 1585 1585 1586 1586 1587
1556 1558 1559 1560 1561 1563 1564 1565 1566 1568 1569 1570 1571 1572 1573 1574 1574 1575 1575 1574 1575 1575 1575 1575 1576 1576 1576 1577 1576 1576 1577 1577 1578 1578 1579 1579 1580 1580 1581 1581 1582 1582 1583
1553 1554 1556 1556 1558 1559 1560 1561 1562 1564 1565 1566 1567 1568 1569 1570 1571 1571 1572 1571 1571 1572 1572 1572 1572 1572 1573 1573 1573 1572 1573 1573 1574 1574 1575 1575 1575 1576 1576 1577 1577 1578 1578
1550 1551 1552 1553 1554 1555 1556 1557 1558 1559 1560 1561 1563 1564 1565 1566 1567 1568 1568 1568 1568 1568 1568 1569 1569 1569 1569 1569 1569 1569 1569 1569 1569 1570 1570 1570 1571 1571 1572 1572 1573 1573 1574
1546 1547 1548 1549 1550 1551 1551 1553 1553 1554 1556 1557 1558 1559 1560 1561 1562 1563 1564 1565 1566 1565 1564 1565 1565 1565 1565 1565 1565 1565 1565 1565 1565 1566 1566 1566 1566 1567 1567 1568 1568 1569 1569
1543 1543 1544 1545 1546 1547 1547 1548 1549 1550 1551 1552 1553 1554 1554 1556 1557 1558 1559 1560 1561 1561 1561 1561 1561 1561 1561 1562 1561 1561 1561 1561 1561 1561 1561 1562 1562 1562 1563 1563 1563 1564 1565
1540 1540 1541 1541 1542 1542 1543 1544 1545 1546 1547 1548 1548 1549 1550 1551 1552 1553 1554 1555 1556 1557 1557 1557 1557 1557 1557 1557 1557 1557 1557 1557 1557 1556 1557 1557 1558 1558 1558 1559 1559 1560 1560
1538 1538 1538 1538 1538 1539 1540 1540 1541 1542 1542 1543 1544 1545 1546 1547 1547 1548 1549 1551 1551 1552 1553 1552 1553 1553 1552 1553 1553 1553 1553 1553 1553 1552 1552 1553 1553 1554 1554 1555 1555 1556 1556
1537 1537 1537 1537 1536 1536 1537 1537 1537 1538 1539 1540 1540 1541 1542 1543 1543 1544 1545 1546 1547 1548 1548 1549 1549 1549 1549 1549 1549 1549 1550 1550 1550 1549 1549 1549 1549 1550 1550 1551 1551 1552 1552
1536 1536 1535 1535 1535 1534 1534 1534 1534 1535 1535 1536 1537 1537 1538 1538 1539 1540 1542 1543 1543 1544 1545 1545 1546 1545 1545 1545 1546 1546 1546 1546 1547 1547 1546 1546 1546 1547 1547 1547 1548 1548 1548
1535 1535 1534 1534 1533 1532 1532 1532 1532 1532 1532 1533 1534 1534 1534 1534 1535 1536 1538 1539 1540 1541 1542 1542 1542 1542 1542 1542 1543 1543 1544 1544 1544 1544 1544 1544 1544 1544 1544 1544 1544 1544 1544
1535 1534 1534 1533 1532 1531 1531 1530 1530 1530 1530 1531 1531 1531 1532 1532 1531 1533 1534 1536 1537 1538 1539 1539 1539 1540 1540 1540 1540 1541 1541 1542 1542 1542 1542 1542 1542 1542 1542 1541 1541 1541 1541
1535 1534 1534 1532 1531 1531 1530 1530 1529 1529 1529 1530 1530 1530 1531 1530 1530 1531 1533 1534 1535 1536 1537 1538 1538 1538 1538 1538 1538 1539 1539 1539 1539 1539 1540 1540 1540 1540 1539 1538 1538 1538 1538
1535 1535 1534 1533 1532 1531 1531 1530 1530 1529 1529 1530 1530 1530 1531 1531 1531 1532 1533 1534 1535 1535 1536 1536 1537 1537 1537 1537 1537 1537 1537 1537 1537 1538 1538 1539 1538 1538 1538 1537 1537 1536 1536
1536 1536 1535 1534 1533 1532 1532 1531 1531 1531 1530 1531 1531 1531 1531 1532 1532 1533 1534 1534 1535 1535 1536 1536 1537 1537 1536 1537 1537 1537 1537 1537 1537 1537 1537 1537 1537 1537 1537 1537 1536 1535 1535
1537 1537 1536 1535 1534 1534 1533 1533 1533 1533 1533 1532 1533 1533 1533 1533 1534 1534 1535 1535 1536 1536 1537 1537 1537 1537 1537 1537 1537 1537 1537 1537 1537 1537 1537 1537 1537 1537 1537 1537 1536 1535 1534